Location: Seattle
(47.6064°N, 122.3308°W)
Time: 00:35:56
(UTC-08:00)

Envisat - Pass Details

Date: 27 October 2020
Orbit: 764 x 766 km, 98.1° (Epoch: 03 December)

Event Time Altitude Azimuth Distance (km) Brightness Sun altitude
Rises 06:39:15 0° 19° (NNE) 3,244 6.4 -11.9°
Reaches altitude 10° 06:41:42 10° 27° (NNE) 2,313 5.8 -11.5°
Maximum altitude 06:46:31 41° 97° (E) 1,101 4.5 -10.7°
Drops below altitude 10° 06:51:17 10° 168° (SSE) 2,295 5.8 -9.9°
Sets 06:53:42 0° 175° (S) 3,216 6.4 -9.5°
